QPF
0.00 0.00 0.00 0.00 0.00 0.00 0.00 0.00 0.00 0.00 0.00 0.00 0.00 0.00 0.00 0.00 0.00 0.00 0.00 0.00 0.00 0.00 0.00 0.00 0.00 0.00 0.00 0.00 0.00 0.00 0.00 0.00 0.00 0.00 0.00 0.00 0.00 0.00 0.00 0.00 0.00 0.00 0.00 0.00 0.00 0.00 0.00
0.00 0.00 0.00 0.00 0.00 0.00 0.00 0.00 0.00 0.00 0.00 0.00 0.00 0.00 0.00 0.00 0.00 0.00 0.00 0.00 0.00 0.00 0.00 0.00 0.00 0.00 0.00 0.00 0.00 0.00 0.00 0.00 0.00 0.00 0.00 0.00 0.00 0.00 0.00 0.00 0.00 0.00 0.00 0.00 0.00 0.00 0.00
0.00 0.00 0.00 0.00 0.00 0.00 0.00 0.00 0.00 0.00 0.00 0.00 0.00 0.00 0.00 0.00 0.00 0.00 0.00 0.00 0.00 0.00 0.00 0.00 0.00 0.00 0.00 0.00 0.00 0.00 0.00 0.00 0.00 0.00 0.00 0.00 0.00 0.00 0.00 0.00 0.00 0.00 0.00 0.00 0.00 0.00 0.00
0.00 0.00 0.00 0.00 0.00 0.00 0.00 0.00 0.00 0.00 0.00 0.00 0.00 0.00 0.00 0.00 0.00 0.00 0.00 0.00 0.00 0.00 0.00 0.00 0.00 0.00 0.00 0.00 0.00 0.00 0.00 0.00 0.00 0.00 0.00 0.00 0.00 0.00 0.00 0.00 0.00 0.00 0.00 0.00 0.00 0.00 0.00
0.00 0.00 0.00 0.00 0.00 0.00 0.00 0.00 0.00 0.00 0.00 0.00 0.00 0.00 0.00 0.00 0.00 0.00 0.00 0.00 0.00 0.00 0.00 0.00 0.00 0.00 0.00 0.00 0.00 0.00 0.00 0.00 0.00 0.00 0.00 0.00 0.00 0.00 0.00 0.00 0.00 0.00 0.00 0.00 0.00 0.00 0.00
0.00 0.00 0.00 0.00 0.00 0.00 0.00 0.00 0.00 0.00 0.00 0.00 0.00 0.00 0.00 0.00 0.00 0.00 0.00 0.00 0.00 0.00 0.00 0.00 0.00 0.00 0.00 0.00 0.00 0.00 0.00 0.00 0.00 0.00 0.00 0.00 0.00 0.00 0.00 0.00 0.00 0.00 0.00 0.00 0.00 0.00 0.00
0.00 0.00 0.00 0.00 0.00 0.00 0.00 0.00 0.00 0.00 0.00 0.00 0.00 0.00 0.00 0.00 0.00 0.00 0.00 0.00 0.00 0.00 0.00 0.00 0.00 0.00 0.00 0.00 0.00 0.00 0.00 0.00 0.00 0.00 0.00 0.00 0.00 0.00 0.00 0.00 0.00 0.00 0.00 0.00 0.00 0.00 0.00
0.00 0.00 0.00 0.00 0.00 0.00 0.00 0.00 0.00 0.00 0.00 0.00 0.00 0.00 0.00 0.00 0.00 0.00 0.00 0.00 0.00 0.00 0.00 0.00 0.00 0.00 0.00 0.00 0.00 0.00 0.00 0.00 0.00 0.00 0.00 0.00 0.00 0.00 0.00 0.00 0.00 0.00 0.00 0.00 0.00 0.00 0.00
0.00 0.00 0.00 0.00 0.00 0.00 0.00 0.00 0.00 0.00 0.00 0.00 0.00 0.00 0.00 0.00 0.00 0.00 0.00 0.00 0.00 0.00 0.00 0.00 0.00 0.00 0.00 0.00 0.00 0.00 0.00 0.00 0.00 0.00 0.00 0.00 0.00 0.00 0.00 0.00 0.00 0.00 0.00 0.00 0.00 0.00 0.00
0.00 0.00 0.00 0.00 0.00 0.00 0.00 0.00 0.00 0.00 0.00 0.00 0.00 0.00 0.00 0.00 0.00 0.00 0.00 0.00 0.00 0.00 0.00 0.00 0.00 0.00 0.00 0.00 0.00 0.00 0.00 0.00 0.00 0.00 0.00 0.00 0.00 0.00 0.00 0.00 0.00 0.00 0.00 0.00 0.00 0.00 0.00
0.00 0.00 0.00 0.00 0.00 0.00 0.00 0.00 0.00 0.00 0.00 0.00 0.00 0.00 0.00 0.00 0.00 0.00 0.00 0.00 0.00 0.00 0.00 0.00 0.00 0.00 0.00 0.00 0.00 0.00 0.00 0.00 0.00 0.00 0.00 0.00 0.00 0.00 0.00 0.00 0.00 0.00 0.00 0.00 0.00 0.00 0.00
0.00 0.00 0.00 0.00 0.00 0.00 0.00 0.00 0.00 0.00 0.00 0.00 0.00 0.00 0.00 0.00 0.00 0.00 0.00 0.00 0.00 0.00 0.00 0.00 0.00 0.00 0.00 0.00 0.00 0.00 0.00 0.00 0.00 0.00 0.00 0.00 0.00 0.00 0.00 0.00 0.00 0.00 0.00 0.00 0.00 0.00 0.00
0.00 0.00 0.00 0.00 0.00 0.00 0.00 0.00 0.00 0.00 0.00 0.00 0.00 0.00 0.00 0.00 0.00 0.00 0.00 0.00 0.00 0.00 0.00 0.00 0.00 0.00 0.00 0.00 0.00 0.00 0.00 0.00 0.00 0.00 0.00 0.00 0.00 0.00 0.00 0.00 0.00 0.00 0.00 0.00 0.00 0.00 0.00
0.00 0.00 0.00 0.00 0.00 0.00 0.00 0.00 0.00 0.00 0.00 0.00 0.00 0.00 0.00 0.00 0.00 0.00 0.00 0.00 0.00 0.00 0.00 0.00 0.00 0.00 0.00 0.00 0.00 0.00 0.00 0.00 0.00 0.00 0.00 0.00 0.00 0.00 0.00 0.00 0.00 0.00 0.00 0.00 0.00 0.00 0.00
0.00 0.00 0.00 0.00 0.00 0.00 0.00 0.00 0.00 0.00 0.00 0.00 0.00 0.00 0.00 0.00 0.00 0.00 0.00 0.00 0.00 0.00 0.00 0.00 0.00 0.00 0.00 0.00 0.00 0.00 0.00 0.00 0.00 0.00 0.00 0.00 0.00 0.00 0.00 0.00 0.00 0.00 0.00 0.00 0.00 0.00 0.00
0.00 0.00 0.00 0.00 0.00 0.00 0.00 0.00 0.00 0.00 0.00 0.00 0.00 0.00 0.00 0.00 0.00 0.00 0.00 0.00 0.00 0.00 0.00 0.00 0.00 0.00 0.00 0.00 0.00 0.00 0.00 0.00 0.00 0.00 0.00 0.00 0.00 0.00 0.00 0.00 0.00 0.00 0.00 0.00 0.00 0.00 0.00
0.00 0.00 0.00 0.00 0.00 0.00 0.00 0.00 0.00 0.00 0.00 0.00 0.00 0.00 0.00 0.00 0.00 0.00 0.00 0.00 0.00 0.00 0.00 0.00 0.00 0.00 0.00 0.00 0.00 0.00 0.00 0.00 0.00 0.00 0.00 0.00 0.00 0.00 0.00 0.00 0.00 0.00 0.00 0.00 0.00 0.00 0.00
0.00 0.00 0.00 0.00 0.00 0.00 0.00 0.00 0.00 0.00 0.00 0.00 0.00 0.00 0.00 0.00 0.00 0.00 0.00 0.00 0.00 0.00 0.00 0.00 0.00 0.00 0.00 0.00 0.00 0.00 0.00 0.00 0.00 0.00 0.00 0.00 0.00 0.00 0.00 0.00 0.00 0.00 0.00 0.00 0.00 0.00 0.00
0.00 0.00 0.00 0.00 0.00 0.00 0.00 0.00 0.00 0.00 0.00 0.00 0.00 0.00 0.00 0.00 0.00 0.00 0.00 0.00 0.00 0.00 0.00 0.00 0.00 0.00 0.00 0.00 0.00 0.00 0.00 0.00 0.00 0.00 0.00 0.00 0.00 0.00 0.00 0.00 0.00 0.00 0.00 0.00 0.00 0.00 0.00
0.00 0.00 0.00 0.00 0.00 0.00 0.00 0.00 0.00 0.00 0.00 0.00 0.00 0.00 0.00 0.00 0.00 0.00 0.00 0.00 0.00 0.00 0.00 0.00 0.00 0.00 0.00 0.00 0.00 0.00 0.00 0.00 0.00 0.00 0.00 0.00 0.00 0.00 0.00 0.00 0.00 0.00 0.00 0.00 0.00 0.00 0.00
0.00 0.00 0.00 0.00 0.00 0.00 0.00 0.00 0.00 0.00 0.00 0.00 0.00 0.00 0.00 0.00 0.00 0.00 0.00 0.00 0.00 0.00 0.00 0.00 0.00 0.00 0.00 0.00 0.00 0.00 0.00 0.00 0.00 0.00 0.00 0.00 0.00 0.00 0.00 0.00 0.00 0.00 0.00 0.00 0.00 0.00 0.00
0.00 0.00 0.00 0.00 0.00 0.00 0.00 0.01 0.01 0.00 0.00 0.00 0.00 0.00 0.00 0.00 0.00 0.00 0.00 0.00 0.00 0.00 0.00 0.00 0.00 0.00 0.00 0.00 0.00 0.00 0.00 0.00 0.00 0.00 0.00 0.00 0.00 0.00 0.00 0.00 0.00 0.00 0.00 0.01 0.01 0.00 0.00
0.00 0.00 0.00 0.00 0.00 0.00 0.00 0.01 0.01 0.00 0.00 0.00 0.00 0.00 0.00 0.00 0.00 0.00 0.00 0.00 0.00 0.00 0.00 0.00 0.00 0.00 0.00 0.00 0.00 0.00 0.00 0.00 0.00 0.00 0.00 0.00 0.00 0.00 0.00 0.00 0.00 0.00 0.00 0.01 0.00 0.00 0.00
0.00 0.00 0.00 0.00 0.00 0.00 0.00 0.00 0.02 0.01 0.00 0.00 0.00 0.00 0.00 0.00 0.00 0.00 0.00 0.00 0.00 0.00 0.00 0.00 0.00 0.00 0.00 0.00 0.00 0.00 0.00 0.00 0.00 0.00 0.00 0.00 0.00 0.00 0.00 0.00 0.00 0.00 0.00 0.00 0.00 0.00 0.00
0.00 0.00 0.00 0.00 0.00 0.00 0.00 0.00 0.01 0.01 0.01 0.00 0.00 0.00 0.00 0.00 0.00 0.00 0.00 0.00 0.00 0.00 0.00 0.00 0.00 0.00 0.00 0.00 0.00 0.00 0.00 0.00 0.00 0.00 0.00 0.00 0.00 0.01 0.02 0.00 0.00 0.00 0.00 0.00 0.00 0.00 0.00
0.00 0.00 0.00 0.00 0.00 0.00 0.00 0.00 0.00 0.01 0.03 0.02 0.00 0.00 0.00 0.00 0.00 0.00 0.00 0.00 0.00 0.00 0.00 0.00 0.00 0.00 0.00 0.00 0.00 0.00 0.00 0.00 0.00 0.00 0.00 0.00 0.00 0.01 0.03 0.04 0.00 0.00 0.00 0.00 0.00 0.00 0.00
0.00 0.00 0.00 0.00 0.00 0.00 0.00 0.00 0.00 0.00 0.03 0.06 0.00 0.00 0.00 0.01 0.00 0.00 0.00 0.00 0.00 0.00 0.00 0.00 0.00 0.00 0.00 0.00 0.01 0.00 0.00 0.00 0.00 0.00 0.00 0.00 0.00 0.02 0.01 0.06 0.00 0.00 0.00 0.00 0.00 0.00 0.00
0.00 0.00 0.00 0.00 0.00 0.00 0.00 0.00 0.00 0.00 0.02 0.07 0.01 0.00 0.01 0.02 0.01 0.00 0.00 0.00 0.00 0.00 0.00 0.00 0.01 0.00 0.01 0.02 0.02 0.00 0.00 0.00 0.00 0.00 0.00 0.00 0.01 0.02 0.03 0.06 0.01 0.00 0.00 0.00 0.00 0.00 0.00
0.00 0.00 0.00 0.00 0.00 0.00 0.00 0.00 0.00 0.00 0.01 0.08 0.02 0.01 0.05 0.07 0.02 0.00 0.00 0.00 0.00 0.00 0.00 0.01 0.01 0.00 0.04 0.05 0.05 0.06 0.03 0.01 0.00 0.00 0.00 0.00 0.00 0.01 0.02 0.01 0.00 0.00 0.00 0.00 0.00 0.00 0.00
MSLP
1025.91 1025.81 1025.68 1025.51 1025.32 1025.07 1024.78 1024.51 1024.27 1023.94 1023.51 1023.05 1022.68 1022.18 1021.63 1021.16 1020.59 1020.23 1019.73 1019.24 1018.88 1018.51 1018.36 1018.31 1018.35 1018.37 1018.30 1017.97 1017.73 1017.22 1017.24 1017.18 1016.97 1016.94 1017.21 1017.35 1017.71 1018.29 1018.64 1018.62 1018.53 1018.54 1018.43 1018.23 1018.22 1018.70 1019.51
1026.20 1026.06 1025.90 1025.73 1025.53 1025.32 1025.06 1024.79 1024.48 1024.10 1023.63 1023.18 1022.70 1022.21 1021.67 1021.08 1020.53 1020.11 1019.53 1019.10 1018.74 1018.46 1018.25 1018.21 1018.18 1018.17 1018.10 1017.88 1017.35 1017.33 1017.31 1017.21 1017.20 1017.22 1017.44 1017.54 1018.04 1018.27 1018.68 1018.73 1018.84 1018.74 1018.47 1018.37 1018.31 1018.87 1019.62
1026.41 1026.27 1026.13 1025.96 1025.73 1025.49 1025.27 1024.99 1024.68 1024.25 1023.76 1023.32 1022.83 1022.31 1021.66 1020.95 1020.37 1020.00 1019.45 1019.04 1018.79 1018.52 1018.34 1018.30 1018.22 1018.24 1017.91 1017.81 1017.44 1017.41 1017.34 1017.39 1017.33 1017.42 1017.70 1017.89 1017.98 1018.25 1018.64 1018.81 1018.75 1018.90 1018.98 1018.87 1018.94 1019.28 1020.21
1026.53 1026.39 1026.26 1026.10 1025.88 1025.64 1025.41 1025.16 1024.82 1024.39 1023.92 1023.45 1022.95 1022.46 1021.84 1021.09 1020.32 1019.70 1019.21 1018.89 1018.75 1018.63 1018.58 1018.52 1018.43 1018.27 1018.10 1017.54 1017.56 1017.43 1017.49 1017.56 1017.52 1017.60 1017.72 1017.86 1018.03 1018.35 1018.68 1018.90 1019.21 1019.61 1019.65 1019.95 1019.54 1019.71 1020.37
1026.62 1026.52 1026.41 1026.22 1026.01 1025.76 1025.50 1025.23 1024.94 1024.54 1024.10 1023.66 1023.14 1022.54 1021.94 1021.16 1020.35 1019.45 1019.06 1018.54 1018.71 1018.73 1018.65 1018.62 1018.53 1018.26 1018.25 1017.63 1017.75 1017.68 1017.55 1017.62 1017.60 1017.67 1017.79 1017.85 1018.27 1019.14 1019.34 1020.11 1020.66 1020.83 1020.60 1020.34 1020.10 1020.13 1020.64
1026.61 1026.55 1026.45 1026.29 1026.10 1025.92 1025.68 1025.39 1025.04 1024.62 1024.21 1023.80 1023.30 1022.73 1022.13 1021.40 1020.59 1019.51 1018.93 1018.63 1018.66 1018.57 1018.61 1018.51 1018.62 1018.76 1018.20 1018.40 1017.96 1017.71 1017.34 1017.38 1017.62 1017.85 1018.17 1018.37 1019.24 1020.05 1020.78 1021.05 1021.75 1021.44 1021.20 1020.61 1020.62 1021.05 1021.60
1026.56 1026.48 1026.35 1026.26 1026.16 1026.02 1025.80 1025.50 1025.16 1024.76 1024.29 1023.86 1023.31 1022.71 1022.19 1021.68 1020.89 1019.91 1018.96 1018.95 1019.62 1019.53 1019.34 1019.68 1019.50 1019.11 1018.59 1018.27 1018.00 1017.67 1017.58 1017.73 1017.93 1018.18 1018.53 1018.92 1019.68 1020.59 1020.81 1021.01 1020.93 1020.91 1020.93 1020.96 1020.50 1020.93 1022.24
1026.51 1026.43 1026.28 1026.20 1026.09 1025.94 1025.76 1025.51 1025.26 1024.87 1024.46 1023.96 1023.38 1022.81 1021.96 1021.57 1021.18 1020.43 1020.25 1021.39 1022.38 1022.71 1021.37 1019.85 1019.42 1018.98 1018.70 1018.63 1018.38 1017.90 1017.86 1018.20 1018.33 1018.77 1019.00 1019.56 1019.86 1019.94 1020.12 1020.48 1020.64 1020.61 1020.68 1020.70 1020.55 1021.03 1022.30
1026.37 1026.35 1026.24 1026.11 1025.99 1025.86 1025.73 1025.52 1025.24 1024.90 1024.56 1024.12 1023.58 1022.92 1022.14 1021.35 1020.92 1021.23 1021.97 1022.69 1022.64 1022.69 1022.10 1020.15 1019.22 1018.93 1018.86 1018.95 1018.83 1018.43 1018.38 1018.53 1018.62 1018.90 1019.25 1019.69 1019.61 1019.40 1019.68 1020.21 1020.63 1020.87 1020.90 1020.86 1021.10 1021.14 1022.29
1026.15 1026.16 1026.11 1026.00 1025.89 1025.82 1025.72 1025.54 1025.26 1024.97 1024.64 1024.20 1023.68 1023.26 1022.51 1021.43 1021.30 1022.15 1022.59 1022.67 1022.57 1022.67 1022.01 1020.54 1019.25 1018.65 1018.45 1018.43 1018.65 1018.36 1018.50 1018.89 1018.86 1019.24 1019.49 1019.64 1019.39 1019.41 1019.53 1019.88 1020.27 1020.73 1020.69 1020.98 1021.30 1021.76 1022.46
1025.90 1025.91 1025.88 1025.84 1025.75 1025.71 1025.57 1025.38 1025.17 1024.90 1024.66 1024.25 1023.74 1023.31 1022.83 1022.01 1022.58 1022.67 1023.03 1022.71 1022.55 1022.76 1022.42 1020.52 1019.10 1018.28 1018.33 1018.73 1018.61 1018.38 1018.50 1018.68 1019.05 1019.40 1019.83 1019.62 1019.44 1019.41 1019.51 1019.67 1020.22 1020.21 1020.26 1020.83 1021.24 1021.84 1022.39
1025.61 1025.64 1025.64 1025.63 1025.61 1025.48 1025.33 1025.19 1025.06 1024.80 1024.54 1024.24 1023.76 1023.37 1023.08 1022.72 1022.90 1022.93 1022.78 1022.69 1022.76 1022.64 1022.04 1020.62 1019.68 1019.31 1019.16 1018.92 1018.83 1018.56 1018.67 1018.79 1019.09 1019.58 1019.91 1019.92 1019.80 1019.82 1019.72 1019.79 1020.01 1020.15 1020.41 1020.84 1021.41 1021.97 1022.59
1025.28 1025.31 1025.32 1025.29 1025.30 1025.24 1025.08 1024.96 1024.87 1024.72 1024.47 1024.07 1023.65 1023.24 1023.07 1022.90 1022.97 1022.77 1022.77 1022.85 1022.76 1022.60 1021.93 1021.21 1020.55 1020.21 1020.17 1019.80 1019.39 1019.22 1019.32 1019.79 1020.44 1020.89 1021.14 1020.60 1020.16 1019.93 1019.95 1020.05 1020.20 1020.46 1020.99 1021.61 1022.39 1022.76 1022.57
1025.01 1024.99 1025.01 1025.05 1025.05 1024.98 1024.88 1024.76 1024.63 1024.53 1024.38 1024.01 1023.39 1023.04 1022.80 1022.62 1022.62 1022.59 1022.69 1022.61 1022.54 1022.60 1022.03 1021.51 1021.11 1020.79 1020.80 1020.54 1020.19 1020.10 1020.20 1020.71 1020.98 1021.31 1021.80 1021.89 1020.78 1020.37 1020.32 1020.46 1020.91 1021.16 1021.48 1022.03 1022.54 1022.89 1023.01
1024.82 1024.79 1024.82 1024.86 1024.90 1024.86 1024.70 1024.61 1024.48 1024.35 1024.26 1024.01 1023.33 1023.00 1022.88 1022.68 1022.49 1022.45 1022.53 1023.06 1023.05 1022.67 1022.37 1022.05 1021.42 1021.46 1021.41 1021.18 1021.28 1021.07 1020.88 1021.15 1021.35 1021.52 1022.09 1022.26 1021.46 1020.84 1020.68 1020.57 1020.79 1021.05 1021.78 1022.07 1022.52 1022.90 1023.50
1024.74 1024.71 1024.73 1024.75 1024.77 1024.75 1024.68 1024.56 1024.37 1024.26 1024.16 1024.14 1024.00 1023.73 1023.14 1022.66 1022.54 1022.48 1022.89 1023.20 1022.92 1022.58 1022.39 1022.39 1022.50 1022.22 1022.32 1022.15 1022.09 1021.89 1021.44 1021.30 1021.47 1021.75 1022.01 1022.48 1022.26 1021.34 1020.79 1020.83 1020.92 1020.94 1021.40 1022.14 1022.81 1023.06 1023.24
1024.67 1024.68 1024.70 1024.68 1024.69 1024.67 1024.60 1024.46 1024.37 1024.31 1024.15 1024.10 1024.13 1023.83 1022.85 1022.63 1022.57 1022.81 1023.39 1023.16 1022.74 1022.52 1022.47 1022.69 1022.82 1022.88 1022.81 1022.74 1022.49 1022.23 1021.73 1021.37 1021.37 1021.67 1021.87 1022.50 1023.14 1022.24 1021.53 1021.24 1021.23 1021.26 1021.31 1021.82 1022.52 1023.08 1023.28
1024.50 1024.53 1024.58 1024.54 1024.49 1024.51 1024.53 1024.51 1024.44 1024.37 1024.24 1024.19 1024.44 1024.06 1022.99 1022.57 1023.21 1023.50 1023.52 1022.89 1022.64 1022.53 1022.46 1022.53 1022.63 1022.78 1022.83 1022.84 1022.70 1022.37 1022.01 1021.74 1021.70 1021.83 1022.25 1022.47 1023.19 1023.58 1022.50 1021.59 1021.41 1021.37 1021.55 1021.93 1022.62 1023.19 1023.73
1024.21 1024.31 1024.37 1024.40 1024.35 1024.39 1024.43 1024.47 1024.48 1024.46 1024.52 1024.71 1024.98 1024.52 1023.31 1023.19 1023.89 1024.13 1023.65 1023.16 1022.60 1022.69 1022.75 1022.75 1022.81 1022.90 1022.91 1023.14 1023.30 1022.68 1022.17 1021.74 1021.82 1022.10 1022.58 1023.07 1023.54 1023.69 1022.81 1022.31 1021.55 1021.43 1021.69 1021.81 1022.41 1022.90 1023.27
1023.94 1023.97 1024.06 1024.16 1024.13 1024.18 1024.28 1024.33 1024.37 1024.47 1024.67 1024.85 1025.35 1025.31 1024.55 1024.44 1024.75 1024.44 1024.08 1023.51 1023.10 1022.87 1022.89 1022.90 1023.07 1023.20 1023.34 1023.41 1023.36 1023.08 1022.74 1022.24 1022.27 1022.45 1022.71 1023.01 1023.95 1024.15 1023.66 1022.73 1022.30 1022.00 1021.52 1021.73 1022.04 1022.40 1022.27
1023.74 1023.71 1023.78 1023.83 1023.82 1023.92 1024.04 1024.17 1024.26 1024.44 1024.67 1025.02 1025.43 1025.64 1025.43 1025.41 1025.07 1024.76 1024.53 1023.94 1023.50 1023.40 1023.19 1023.03 1023.15 1023.37 1023.63 1023.96 1023.82 1023.52 1023.15 1022.93 1022.80 1022.91 1023.31 1023.82 1024.12 1024.17 1023.58 1023.05 1022.64 1021.89 1021.22 1021.10 1021.39 1021.09 1021.60
1023.55 1023.58 1023.60 1023.54 1023.52 1023.52 1023.65 1023.91 1024.15 1024.47 1024.76 1025.16 1025.70 1025.90 1025.90 1025.68 1025.24 1024.98 1024.73 1024.46 1023.94 1023.54 1023.39 1023.37 1023.43 1023.49 1023.88 1024.09 1024.04 1024.16 1024.21 1023.87 1023.64 1023.58 1023.87 1024.29 1024.15 1024.27 1023.82 1023.30 1022.91 1022.16 1021.18 1020.55 1020.58 1020.80 1021.03
1023.42 1023.52 1023.54 1023.51 1023.41 1023.33 1023.38 1023.49 1023.78 1024.25 1024.44 1025.03 1025.58 1025.62 1025.64 1025.65 1025.56 1025.46 1024.77 1024.34 1024.15 1023.96 1023.41 1023.36 1023.41 1023.65 1023.63 1023.65 1023.96 1024.06 1024.35 1024.27 1024.02 1024.08 1024.34 1024.70 1024.80 1025.07 1024.00 1023.71 1023.23 1021.91 1020.52 1020.34 1020.37 1020.89 1021.48
1023.09 1023.24 1023.33 1023.42 1023.42 1023.30 1023.21 1023.31 1023.50 1023.74 1023.91 1024.25 1024.87 1025.29 1025.86 1025.55 1025.42 1025.27 1024.61 1024.44 1024.32 1024.29 1024.07 1023.72 1023.74 1023.86 1023.61 1023.65 1023.77 1023.72 1023.74 1023.78 1023.90 1023.84 1024.27 1024.59 1025.10 1025.42 1024.77 1024.37 1023.32 1021.16 1021.28 1021.31 1021.76 1022.38 1022.83
1022.58 1022.62 1022.79 1022.93 1023.11 1023.27 1023.19 1023.20 1023.28 1023.56 1023.71 1023.95 1024.35 1024.78 1025.27 1025.26 1024.91 1024.78 1024.61 1024.62 1024.51 1024.49 1024.53 1024.11 1023.59 1023.44 1023.51 1024.00 1024.45 1024.26 1023.96 1023.97 1023.81 1023.98 1023.91 1024.05 1024.84 1025.41 1025.55 1024.69 1022.98 1021.71 1022.24 1022.46 1022.70 1023.32 1023.83
1022.42 1022.21 1022.29 1022.42 1022.50 1022.69 1022.87 1022.95 1023.03 1023.14 1023.29 1023.83 1023.95 1024.06 1024.66 1024.93 1024.18 1023.75 1024.15 1024.26 1024.52 1024.65 1024.75 1024.15 1023.86 1023.83 1023.93 1024.55 1025.29 1025.49 1024.99 1024.38 1024.13 1024.13 1024.27 1024.50 1024.60 1025.07 1025.24 1024.92 1023.76 1022.53 1023.10 1023.50 1023.72 1024.18 1024.33
1022.27 1022.04 1022.01 1022.00 1021.99 1022.06 1022.24 1022.42 1022.60 1022.78 1022.96 1023.47 1023.32 1023.41 1024.06 1024.41 1023.60 1023.60 1023.59 1023.75 1023.89 1024.21 1024.12 1024.02 1024.12 1024.36 1024.23 1024.94 1025.55 1025.51 1025.22 1024.57 1024.46 1024.37 1024.61 1025.04 1025.17 1024.67 1024.79 1024.67 1023.46 1023.28 1023.83 1024.38 1025.34 1025.75 1025.71
1021.72 1021.70 1021.83 1021.82 1021.72 1021.62 1021.64 1021.84 1021.96 1022.15 1022.42 1022.96 1022.90 1023.00 1022.98 1023.48 1022.81 1022.72 1022.88 1022.89 1023.43 1023.47 1023.38 1023.88 1024.39 1024.57 1024.93 1025.33 1025.20 1024.82 1024.89 1024.10 1024.24 1023.74 1023.76 1024.03 1024.35 1024.64 1024.79 1025.00 1024.30 1023.89 1024.82 1025.68 1025.88 1026.22 1026.79
1021.20 1021.30 1021.31 1021.37 1021.42 1021.18 1021.28 1021.31 1021.41 1021.56 1021.78 1022.21 1022.64 1022.64 1022.98 1023.40 1022.79 1022.53 1022.31 1022.15 1021.98 1022.05 1022.37 1022.96 1022.78 1023.08 1023.39 1024.00 1024.12 1024.05 1024.03 1023.66 1023.46 1023.64 1022.96 1023.33 1022.52 1022.99 1023.73 1023.57 1023.97 1024.95 1025.47 1026.06 1026.45 1027.01 1027.90
Thickness
5661 5662 5662 5662 5662 5663 5664 5664 5665 5665 5667 5668 5669 5671 5673 5676 5678 5679 5681 5683 5683 5684 5683 5681 5678 5675 5674 5669 5663 5670 5666 5663 5661 5657 5646 5640 5629 5618 5608 5605 5605 5603 5600 5601 5600 5592 5583
5661 5662 5662 5662 5663 5662 5663 5663 5664 5665 5667 5669 5671 5673 5675 5677 5680 5681 5684 5685 5686 5686 5686 5683 5681 5678 5676 5662 5673 5669 5665 5662 5658 5653 5645 5639 5628 5622 5612 5607 5600 5601 5598 5596 5600 5588 5578
5660 5661 5661 5662 5662 5662 5662 5662 5663 5665 5667 5668 5670 5672 5676 5680 5683 5684 5686 5687 5687 5686 5685 5682 5680 5678 5674 5666 5671 5667 5664 5660 5657 5651 5641 5638 5632 5622 5614 5606 5606 5601 5592 5590 5587 5583 5571
5660 5661 5662 5662 5662 5662 5662 5662 5663 5664 5665 5667 5669 5671 5674 5679 5683 5686 5688 5689 5687 5685 5682 5679 5677 5676 5665 5673 5670 5667 5662 5656 5654 5650 5644 5639 5632 5622 5615 5609 5598 5588 5582 5568 5580 5579 5569
5660 5660 5660 5661 5662 5662 5662 5661 5662 5663 5665 5666 5668 5671 5674 5678 5682 5687 5688 5691 5686 5683 5680 5677 5675 5672 5659 5670 5663 5664 5662 5654 5651 5648 5642 5638 5628 5612 5605 5588 5575 5570 5568 5570 5570 5573 5567
5660 5660 5660 5661 5661 5661 5661 5660 5661 5663 5664 5665 5667 5669 5672 5676 5680 5686 5687 5687 5684 5683 5679 5677 5672 5662 5663 5655 5662 5662 5664 5659 5649 5642 5634 5629 5610 5597 5584 5577 5562 5570 5566 5567 5563 5564 5553
5659 5660 5661 5661 5661 5660 5660 5660 5661 5662 5663 5665 5667 5670 5672 5674 5678 5682 5688 5683 5670 5670 5667 5659 5656 5656 5658 5661 5662 5661 5660 5652 5645 5637 5624 5620 5601 5592 5592 5587 5582 5577 5569 5561 5570 5566 5544
5658 5659 5660 5661 5661 5660 5660 5660 5660 5661 5662 5663 5666 5669 5673 5674 5675 5678 5678 5661 5651 5648 5651 5659 5658 5657 5657 5655 5648 5654 5654 5642 5637 5624 5624 5607 5599 5604 5599 5594 5586 5582 5577 5569 5567 5567 5546
5657 5657 5659 5660 5661 5661 5660 5659 5659 5660 5661 5662 5665 5668 5672 5675 5676 5671 5662 5653 5650 5647 5645 5655 5659 5655 5652 5649 5641 5641 5642 5634 5630 5623 5617 5602 5609 5610 5603 5589 5582 5576 5571 5568 5562 5562 5544
5656 5656 5657 5659 5660 5660 5659 5658 5659 5659 5660 5661 5663 5665 5669 5675 5672 5662 5656 5654 5651 5647 5638 5648 5652 5656 5656 5652 5641 5645 5639 5629 5625 5616 5612 5609 5610 5605 5599 5591 5584 5573 5573 5570 5564 5556 5545
5655 5656 5657 5658 5659 5659 5659 5659 5659 5659 5659 5660 5662 5664 5666 5669 5661 5658 5654 5653 5650 5644 5607 5652 5652 5663 5656 5646 5643 5641 5638 5630 5618 5613 5607 5605 5604 5600 5595 5594 5584 5578 5576 5570 5565 5555 5549
5654 5655 5657 5658 5658 5659 5660 5660 5659 5658 5658 5659 5661 5663 5663 5663 5660 5656 5654 5651 5646 5635 5603 5638 5646 5640 5637 5639 5639 5638 5632 5628 5622 5610 5604 5600 5600 5596 5593 5588 5583 5582 5577 5569 5556 5548 5531
5654 5655 5656 5657 5658 5659 5660 5660 5659 5658 5658 5658 5660 5662 5662 5660 5656 5656 5653 5648 5637 5616 5642 5635 5631 5632 5625 5627 5628 5628 5621 5607 5595 5584 5581 5585 5592 5592 5588 5580 5579 5571 5563 5552 5551 5538 5543
5653 5654 5655 5656 5656 5657 5658 5659 5658 5658 5657 5658 5660 5661 5660 5659 5657 5655 5650 5648 5627 5636 5630 5632 5629 5625 5622 5619 5622 5617 5612 5596 5594 5589 5569 5563 5565 5583 5582 5577 5569 5563 5558 5539 5551 5546 5544
5651 5652 5653 5653 5653 5654 5656 5656 5656 5656 5656 5656 5659 5659 5656 5655 5655 5652 5646 5620 5625 5628 5627 5620 5623 5617 5611 5614 5607 5600 5601 5592 5590 5585 5576 5560 5569 5576 5574 5572 5568 5562 5547 5551 5542 5537 5528
5647 5648 5649 5650 5650 5650 5651 5652 5652 5653 5653 5652 5651 5649 5650 5652 5652 5648 5635 5626 5624 5625 5622 5617 5607 5610 5600 5595 5592 5587 5589 5593 5586 5582 5573 5566 5552 5569 5570 5564 5561 5560 5553 5540 5525 5540 5541
5642 5644 5644 5645 5645 5646 5647 5647 5647 5647 5648 5648 5646 5647 5651 5650 5648 5638 5623 5620 5624 5620 5618 5610 5603 5597 5594 5589 5586 5586 5588 5590 5586 5579 5574 5563 5549 5555 5558 5557 5550 5546 5542 5538 5530 5521 5531
5637 5638 5639 5640 5640 5640 5640 5640 5640 5640 5641 5642 5637 5637 5646 5646 5633 5616 5621 5625 5621 5617 5613 5607 5602 5595 5590 5587 5582 5584 5582 5581 5578 5573 5564 5561 5539 5525 5546 5550 5546 5544 5539 5530 5518 5521 5508
5632 5632 5633 5633 5634 5634 5634 5633 5633 5633 5632 5630 5628 5626 5636 5635 5621 5614 5616 5619 5617 5610 5604 5600 5595 5591 5588 5581 5573 5575 5578 5580 5573 5567 5556 5550 5534 5516 5535 5542 5543 5539 5534 5530 5517 5503 5507
5627 5628 5628 5628 5628 5628 5627 5626 5626 5625 5624 5622 5618 5616 5619 5614 5605 5612 5609 5610 5608 5604 5599 5595 5590 5586 5580 5573 5569 5567 5569 5571 5564 5559 5553 5547 5527 5529 5521 5532 5529 5524 5528 5524 5517 5496 5516
5620 5622 5622 5623 5623 5622 5621 5620 5619 5617 5616 5612 5610 5609 5604 5605 5605 5603 5600 5599 5598 5595 5591 5589 5585 5579 5574 5562 5561 5559 5561 5560 5557 5552 5545 5533 5520 5511 5519 5521 5518 5521 5526 5526 5513 5522 5510
5612 5614 5615 5617 5618 5618 5617 5615 5613 5609 5606 5604 5596 5596 5589 5590 5593 5596 5592 5588 5587 5588 5588 5582 5577 5576 5567 5558 5559 5552 5548 5548 5545 5540 5532 5520 5515 5517 5506 5516 5512 5511 5524 5528 5526 5521 5515
5604 5604 5605 5607 5609 5610 5610 5609 5607 5603 5600 5595 5587 5588 5592 5589 5581 5581 5582 5584 5583 5580 5582 5579 5574 5568 5562 5560 5553 5544 5536 5533 5531 5531 5518 5514 5502 5498 5510 5504 5498 5514 5527 5524 5521 5511 5504
5596 5596 5596 5597 5598 5600 5601 5601 5601 5599 5596 5593 5587 5583 5579 5584 5572 5570 5579 5574 5573 5570 5570 5570 5564 5557 5558 5552 5547 5542 5530 5524 5519 5519 5515 5506 5497 5489 5482 5487 5488 5523 5500 5497 5492 5481 5471
5589 5590 5590 5590 5589 5589 5590 5590 5591 5589 5588 5585 5580 5577 5572 5573 5575 5572 5566 5564 5562 5557 5552 5555 5558 5555 5549 5542 5532 5528 5525 5527 5525 5510 5507 5505 5500 5481 5480 5481 5496 5511 5487 5487 5484 5476 5457
5577 5581 5582 5582 5582 5582 5580 5580 5580 5579 5579 5576 5572 5570 5565 5564 5574 5576 5563 5559 5552 5543 5542 5545 5545 5540 5539 5527 5512 5512 5523 5522 5518 5514 5496 5491 5488 5489 5476 5482 5488 5501 5467 5462 5460 5468 5448
5566 5570 5572 5573 5574 5574 5573 5572 5570 5568 5567 5565 5567 5563 5555 5553 5565 5562 5558 5556 5546 5544 5544 5540 5533 5528 5527 5512 5504 5507 5496 5504 5502 5503 5481 5469 5466 5474 5474 5477 5483 5465 5456 5449 5466 5465 5423
5554 5557 5558 5560 5562 5564 5564 5563 5562 5560 5557 5554 5557 5554 5553 5550 5560 5557 5556 5551 5542 5541 5541 5530 5525 5515 5503 5496 5498 5502 5487 5493 5495 5496 5480 5475 5467 5458 5465 5464 5475 5448 5443 5449 5425 5412 5406
5544 5546 5547 5548 5549 5553 5553 5554 5553 5550 5549 5546 5547 5545 5539 5538 5549 5544 5545 5546 5552 5550 5540 5527 5534 5519 5512 5501 5495 5494 5498 5494 5485 5484 5488 5481 5488 5479 5476 5483 5437 5424 5419 5411 5408 5397 5387